Orbital Elements at Epoch 2459000.5 (2020-May-31.0) TDB
Reference: JPL 10 (heliocentric ecliptic J2000)
Element | Value | Uncertainty (1-sigma) | Units |
e | .1371973489585176 | 7.0948e-08 | |
a | 3.144037322520248 | 3.2973e-08 | au |
q | 2.712683736843834 | 2.2769e-07 | au |
i | 2.168018801577717 | 8.4461e-06 | deg |
node | 58.211704484571 | 0.00019071 | deg |
peri | 96.8224477988913 | 0.00019388 | deg |
M | 231.5175199324915 | 3.3497e-05 | deg |
tp | 2459727.227135056815 (2022-May-27.72713506) | 0.00019339 | TDB |
period | 2036.244696420786 5.57 | 3.2032e-05 8.77e-08 | d yr |
n | .1767960405902055 | 2.7812e-09 | deg/d |
Q | 3.575390908196662 | 3.7497e-08 | au |
|
| | Orbit Determination Parameters
Additional Information
|